N508FX SBKG-SBFN

Flight info

Callsign N508FX
Flight time 1h 1m
Altitude 41000
Route JPS DCT FNR
Aircraft CL30/M-SDFGIRW/S

Departure

Time 2026-05-06 01:00
Airport Presidente João Suassuna Airport (SBKG)

Arrival

Time 2026-05-06 02:01
Airport Fernando de Noronha Airport (SBFN)
Time Latitude Longitude Altitude Speed Heading
2026-05-06 00:53 -7.26904 -35.89447 1644 ft 0 kts 35°
2026-05-06 00:57 -7.26901 -35.89444 1644 ft 0 kts 35°
2026-05-06 00:57 -7.26898 -35.89438 1645 ft 2 kts 93°
2026-05-06 00:57 -7.26919 -35.89434 1645 ft 2 kts 208°
2026-05-06 00:57 -7.26960 -35.89452 1643 ft 7 kts 189°
2026-05-06 00:58 -7.26975 -35.89450 1642 ft 0 kts 148°
2026-05-06 00:58 -7.26985 -35.89446 1642 ft 0 kts 156°
2026-05-06 00:58 -7.27001 -35.89452 1641 ft 2 kts 213°
2026-05-06 00:58 -7.27013 -35.89459 1640 ft 1 kts 213°
2026-05-06 00:59 -7.27030 -35.89471 1639 ft 6 kts 217°
2026-05-06 00:59 -7.27039 -35.89507 1639 ft 7 kts 270°
2026-05-06 00:59 -7.27027 -35.89521 1639 ft 0 kts 27°
2026-05-06 00:59 -7.27025 -35.89511 1639 ft 4 kts 105°
2026-05-06 01:00 -7.27029 -35.89502 1639 ft 0 kts 120°
2026-05-06 01:00 -7.27211 -35.89245 1644 ft 91 kts 126°
2026-05-06 01:00 -7.27703 -35.88542 1970 ft 143 kts 125°
2026-05-06 01:00 -7.28360 -35.87677 2731 ft 170 kts 123°
2026-05-06 01:01 -7.28992 -35.86684 3896 ft 176 kts 123°
2026-05-06 01:01 -7.29584 -35.85627 4877 ft 193 kts 110°
2026-05-06 01:01 -7.29536 -35.84055 5025 ft 264 kts 72°
2026-05-06 01:01 -7.28423 -35.82294 5092 ft 331 kts 54°
2026-05-06 01:02 -7.27115 -35.80565 7510 ft 303 kts 58°
2026-05-06 01:02 -7.26299 -35.79015 10135 ft 256 kts 70°
2026-05-06 01:02 -7.25742 -35.77342 11319 ft 261 kts 77°
2026-05-06 01:02 -7.25315 -35.75529 12336 ft 272 kts 81°
2026-05-06 01:03 -7.24963 -35.73663 13436 ft 278 kts 82°
2026-05-06 01:03 -7.24651 -35.71761 14501 ft 283 kts 83°
2026-05-06 01:03 -7.24357 -35.69811 15513 ft 289 kts 84°
2026-05-06 01:03 -7.24066 -35.67789 16507 ft 295 kts 84°
2026-05-06 01:04 -7.23779 -35.65748 17461 ft 300 kts 84°
2026-05-06 01:04 -7.23489 -35.63660 18383 ft 305 kts 83°
2026-05-06 01:04 -7.23282 -35.62154 19016 ft 309 kts 83°
2026-05-06 01:04 -7.23034 -35.60352 19752 ft 313 kts 83°
2026-05-06 01:05 -7.22733 -35.58167 20605 ft 318 kts 83°
2026-05-06 01:05 -7.22430 -35.55962 21422 ft 323 kts 83°
2026-05-06 01:05 -7.22125 -35.53738 22214 ft 327 kts 82°
2026-05-06 01:05 -7.21813 -35.51472 22993 ft 331 kts 82°
2026-05-06 01:06 -7.21495 -35.49156 23753 ft 335 kts 82°
2026-05-06 01:06 -7.21174 -35.46824 24482 ft 339 kts 82°
2026-05-06 01:06 -7.20849 -35.44462 25201 ft 343 kts 81°
2026-05-06 01:06 -7.20523 -35.42089 25901 ft 346 kts 81°
2026-05-06 01:07 -7.20194 -35.39698 26580 ft 349 kts 81°
2026-05-06 01:07 -7.19861 -35.37276 27231 ft 353 kts 81°
2026-05-06 01:07 -7.19521 -35.34804 27882 ft 356 kts 80°
2026-05-06 01:07 -7.19182 -35.32350 28505 ft 358 kts 80°
2026-05-06 01:08 -7.18842 -35.29884 29107 ft 361 kts 79°
2026-05-06 01:08 -7.18494 -35.27363 29704 ft 363 kts 79°
2026-05-06 01:08 -7.18149 -35.24860 30270 ft 366 kts 79°
2026-05-06 01:08 -7.17797 -35.22311 30844 ft 368 kts 79°
2026-05-06 01:09 -7.17445 -35.19768 31391 ft 370 kts 79°
2026-05-06 01:09 -7.17089 -35.17191 31932 ft 372 kts 79°
2026-05-06 01:09 -7.16730 -35.14597 32451 ft 374 kts 79°
2026-05-06 01:09 -7.16371 -35.12003 32961 ft 376 kts 79°
2026-05-06 01:10 -7.16009 -35.09380 33463 ft 378 kts 78°
2026-05-06 01:10 -7.15647 -35.06767 33950 ft 380 kts 78°
2026-05-06 01:10 -7.15280 -35.04121 34414 ft 382 kts 78°
2026-05-06 01:10 -7.14915 -35.01491 34835 ft 385 kts 78°
2026-05-06 01:11 -7.14290 -34.98880 35221 ft 384 kts 66°
2026-05-06 01:11 -7.13175 -34.96463 35614 ft 381 kts 55°
2026-05-06 01:11 -7.11619 -34.94333 36029 ft 378 kts 44°
2026-05-06 01:11 -7.09741 -34.92511 36521 ft 374 kts 38°
2026-05-06 01:12 -7.07782 -34.90786 37010 ft 373 kts 36°
2026-05-06 01:12 -7.05801 -34.89117 37471 ft 373 kts 35°
2026-05-06 01:12 -7.03806 -34.87485 37918 ft 372 kts 34°
2026-05-06 01:12 -7.01778 -34.85858 38352 ft 372 kts 34°
2026-05-06 01:13 -6.99760 -34.84260 38760 ft 372 kts 34°
2026-05-06 01:13 -6.97734 -34.82668 39155 ft 373 kts 33°
2026-05-06 01:13 -6.95697 -34.81077 39544 ft 373 kts 33°
2026-05-06 01:13 -6.93627 -34.79466 39927 ft 373 kts 33°
2026-05-06 01:14 -6.89533 -34.76290 40632 ft 375 kts 33°
2026-05-06 01:14 -6.87457 -34.74682 40979 ft 376 kts 33°
2026-05-06 01:14 -6.85371 -34.73069 41047 ft 385 kts 34°
2026-05-06 01:15 -6.81033 -34.69716 41059 ft 406 kts 34°
2026-05-06 01:15 -6.76461 -34.66182 41058 ft 425 kts 34°
2026-05-06 01:16 -6.71669 -34.62479 41057 ft 443 kts 34°
2026-05-06 01:16 -6.66694 -34.58636 41056 ft 460 kts 34°
2026-05-06 01:17 -6.61560 -34.54671 41055 ft 475 kts 34°
2026-05-06 01:17 -6.56253 -34.50575 41054 ft 488 kts 34°
2026-05-06 01:18 -6.50832 -34.46390 41049 ft 498 kts 34°
2026-05-06 01:18 -6.45301 -34.42123 41045 ft 506 kts 34°
2026-05-06 01:19 -6.39713 -34.37813 41042 ft 509 kts 34°
2026-05-06 01:19 -6.34110 -34.33492 41035 ft 510 kts 34°
2026-05-06 01:20 -6.28517 -34.29180 41028 ft 510 kts 34°
2026-05-06 01:20 -6.22895 -34.24848 41018 ft 509 kts 34°
2026-05-06 01:21 -6.17274 -34.20518 41017 ft 509 kts 34°
2026-05-06 01:21 -6.11682 -34.16211 41017 ft 509 kts 34°
2026-05-06 01:22 -6.06062 -34.11883 41017 ft 509 kts 34°
2026-05-06 01:22 -6.00484 -34.07590 41017 ft 509 kts 34°
2026-05-06 01:23 -5.94847 -34.03252 41016 ft 509 kts 34°
2026-05-06 01:23 -5.89246 -33.98942 41018 ft 509 kts 34°
2026-05-06 01:24 -5.83635 -33.94626 41022 ft 509 kts 34°
2026-05-06 01:24 -5.78046 -33.90329 41022 ft 509 kts 34°
2026-05-06 01:25 -5.72434 -33.86014 41028 ft 509 kts 34°
2026-05-06 01:25 -5.66836 -33.81711 41034 ft 509 kts 34°
2026-05-06 01:26 -5.61226 -33.77401 41040 ft 509 kts 34°
2026-05-06 01:26 -5.55631 -33.73102 41023 ft 502 kts 34°
2026-05-06 01:27 -5.52885 -33.70992 41013 ft 491 kts 34°
2026-05-06 01:27 -5.50210 -33.68937 41014 ft 482 kts 34°
2026-05-06 01:27 -5.44874 -33.64842 41026 ft 492 kts 34°
2026-05-06 01:28 -5.39414 -33.60652 41025 ft 501 kts 34°
2026-05-06 01:28 -5.33819 -33.56358 41020 ft 508 kts 34°
2026-05-06 01:29 -5.28248 -33.52082 41013 ft 509 kts 34°
2026-05-06 01:29 -5.22720 -33.47840 40996 ft 489 kts 34°
2026-05-06 01:30 -5.20090 -33.45820 40986 ft 468 kts 34°
2026-05-06 01:30 -5.17562 -33.43880 40982 ft 448 kts 34°
2026-05-06 01:30 -5.15125 -33.42012 40982 ft 433 kts 34°
2026-05-06 01:30 -5.12776 -33.40211 40987 ft 427 kts 34°
2026-05-06 01:31 -5.08035 -33.36581 41001 ft 439 kts 34°
2026-05-06 01:31 -5.03092 -33.32795 40996 ft 456 kts 34°
2026-05-06 01:32 -4.97990 -33.28886 40995 ft 471 kts 34°
2026-05-06 01:32 -4.92836 -33.24935 40983 ft 461 kts 34°
2026-05-06 01:33 -4.87819 -33.21090 40990 ft 449 kts 34°
2026-05-06 01:33 -4.82887 -33.17313 40995 ft 448 kts 34°
2026-05-06 01:34 -4.77930 -33.13517 40995 ft 451 kts 34°
2026-05-06 01:34 -4.72925 -33.09686 40525 ft 459 kts 34°
2026-05-06 01:35 -4.70376 -33.07737 39938 ft 465 kts 35°
2026-05-06 01:35 -4.67817 -33.05782 39354 ft 470 kts 35°
2026-05-06 01:35 -4.65213 -33.03802 38765 ft 474 kts 35°
2026-05-06 01:35 -4.62596 -33.01820 38169 ft 474 kts 35°
2026-05-06 01:36 -4.59995 -32.99852 37548 ft 462 kts 35°
2026-05-06 01:36 -4.57467 -32.97943 36940 ft 450 kts 35°
2026-05-06 01:36 -4.54926 -32.96242 36330 ft 438 kts 27°
2026-05-06 01:36 -4.52207 -32.95026 35725 ft 426 kts 18°
2026-05-06 01:37 -4.49387 -32.94324 35118 ft 416 kts
2026-05-06 01:37 -4.46538 -32.94147 34510 ft 407 kts 358°
2026-05-06 01:37 -4.43768 -32.94491 33906 ft 400 kts 348°
2026-05-06 01:37 -4.41147 -32.95340 33299 ft 395 kts 338°
2026-05-06 01:38 -4.38780 -32.96647 32698 ft 391 kts 327°
2026-05-06 01:38 -4.36709 -32.98385 32092 ft 388 kts 317°
2026-05-06 01:38 -4.34901 -33.00314 31502 ft 384 kts 315°
2026-05-06 01:38 -4.33089 -33.02273 30894 ft 380 kts 315°
2026-05-06 01:39 -4.31323 -33.04190 30293 ft 376 kts 315°
2026-05-06 01:39 -4.29567 -33.06104 29688 ft 372 kts 315°
2026-05-06 01:39 -4.27816 -33.07951 29098 ft 367 kts 315°
2026-05-06 01:39 -4.25987 -33.09700 28495 ft 362 kts 315°
2026-05-06 01:40 -4.24173 -33.11409 27892 ft 358 kts 315°
2026-05-06 01:40 -4.22370 -33.13089 27289 ft 354 kts 315°
2026-05-06 01:40 -4.20564 -33.14759 26681 ft 350 kts 315°
2026-05-06 01:40 -4.18783 -33.16392 26078 ft 347 kts 315°
2026-05-06 01:41 -4.17011 -33.18006 25474 ft 344 kts 315°
2026-05-06 01:41 -4.15245 -33.19606 24870 ft 341 kts 315°
2026-05-06 01:41 -4.13514 -33.21166 24275 ft 339 kts 315°
2026-05-06 01:41 -4.11766 -33.22734 23673 ft 338 kts 315°
2026-05-06 01:42 -4.10024 -33.24292 23072 ft 336 kts 315°
2026-05-06 01:42 -4.08347 -33.25889 22461 ft 332 kts 307°
2026-05-06 01:42 -4.07371 -33.27913 21859 ft 324 kts 279°
2026-05-06 01:42 -4.07491 -33.30135 21265 ft 318 kts 251°
2026-05-06 01:43 -4.08655 -33.31970 20677 ft 315 kts 223°
2026-05-06 01:43 -4.10553 -33.32988 20091 ft 315 kts 194°
2026-05-06 01:43 -4.12702 -33.32946 19508 ft 318 kts 166°
2026-05-06 01:43 -4.14602 -33.31837 18898 ft 322 kts 138°
2026-05-06 01:44 -4.15828 -33.29832 18133 ft 363 kts 110°
2026-05-06 01:44 -4.16094 -33.27216 17390 ft 395 kts 86°
2026-05-06 01:44 -4.15274 -33.24606 16619 ft 399 kts 62°
2026-05-06 01:44 -4.13560 -33.22463 15858 ft 395 kts 49°
2026-05-06 01:45 -4.11904 -33.20316 15081 ft 387 kts 57°
2026-05-06 01:45 -4.10558 -33.18049 14313 ft 380 kts 63°
2026-05-06 01:45 -4.09409 -33.15713 13542 ft 373 kts 67°
2026-05-06 01:45 -4.08394 -33.13360 12771 ft 367 kts 69°
2026-05-06 01:46 -4.07458 -33.10986 11991 ft 362 kts 71°
2026-05-06 01:46 -4.06590 -33.08644 11216 ft 357 kts 72°
2026-05-06 01:46 -4.05767 -33.06327 10444 ft 353 kts 72°
2026-05-06 01:46 -4.04972 -33.04023 9670 ft 349 kts 72°
2026-05-06 01:47 -4.04209 -33.01772 8906 ft 345 kts 73°
2026-05-06 01:47 -4.03451 -32.99508 8129 ft 341 kts 73°
2026-05-06 01:47 -4.02716 -32.97292 7360 ft 336 kts 73°
2026-05-06 01:47 -4.02004 -32.95138 6576 ft 313 kts 73°
2026-05-06 01:48 -4.01354 -32.93165 5805 ft 295 kts 73°
2026-05-06 01:48 -4.00826 -32.91554 5169 ft 282 kts 73°
2026-05-06 01:48 -4.00303 -32.89962 4993 ft 254 kts 74°
2026-05-06 01:48 -3.99787 -32.88391 4973 ft 225 kts 74°
2026-05-06 01:49 -3.99309 -32.86926 4985 ft 216 kts 74°
2026-05-06 01:49 -3.98841 -32.85492 4992 ft 215 kts 74°
2026-05-06 01:49 -3.98378 -32.84069 4993 ft 209 kts 74°
2026-05-06 01:49 -3.97955 -32.82779 4971 ft 183 kts 75°
2026-05-06 01:50 -3.97572 -32.81606 4982 ft 174 kts 75°
2026-05-06 01:50 -3.97196 -32.80453 4992 ft 172 kts 75°
2026-05-06 01:50 -3.96855 -32.79402 4993 ft 172 kts 75°
2026-05-06 01:50 -3.96505 -32.78330 4994 ft 172 kts 75°
2026-05-06 01:51 -3.96104 -32.77099 4994 ft 172 kts 75°
2026-05-06 01:51 -3.95734 -32.75964 4994 ft 172 kts 75°
2026-05-06 01:51 -3.95360 -32.74817 4994 ft 172 kts 75°
2026-05-06 01:51 -3.94987 -32.73674 4994 ft 172 kts 75°
2026-05-06 01:52 -3.94615 -32.72533 4994 ft 172 kts 75°
2026-05-06 01:52 -3.94244 -32.71393 4994 ft 172 kts 75°
2026-05-06 01:52 -3.93872 -32.70253 4994 ft 172 kts 75°
2026-05-06 01:52 -3.93501 -32.69117 4994 ft 172 kts 75°
2026-05-06 01:53 -3.93055 -32.67990 4984 ft 176 kts 55°
2026-05-06 01:53 -3.92059 -32.67275 5014 ft 180 kts 30°
2026-05-06 01:53 -3.90934 -32.66710 4994 ft 180 kts 29°
2026-05-06 01:53 -3.89810 -32.66166 4993 ft 180 kts 28°
2026-05-06 01:54 -3.88677 -32.65629 4991 ft 180 kts 28°
2026-05-06 01:54 -3.87524 -32.65093 4701 ft 189 kts 27°
2026-05-06 01:54 -3.86318 -32.64537 4154 ft 196 kts 27°
2026-05-06 01:54 -3.85065 -32.63954 3626 ft 197 kts 32°
2026-05-06 01:55 -3.84266 -32.62974 3149 ft 176 kts 75°
2026-05-06 01:55 -3.84173 -32.61821 2608 ft 159 kts 93°
2026-05-06 01:55 -3.84186 -32.60799 2471 ft 134 kts 95°
2026-05-06 01:55 -3.84212 -32.59936 2471 ft 118 kts 96°
2026-05-06 01:56 -3.84247 -32.59120 2484 ft 116 kts 96°
2026-05-06 01:56 -3.84289 -32.58312 2491 ft 116 kts 97°
2026-05-06 01:56 -3.84340 -32.57505 2492 ft 116 kts 97°
2026-05-06 01:56 -3.84390 -32.56696 2492 ft 117 kts 97°
2026-05-06 01:57 -3.84441 -32.55878 2491 ft 117 kts 97°
2026-05-06 01:57 -3.84493 -32.55062 2470 ft 117 kts 97°
2026-05-06 01:57 -3.84546 -32.54256 2328 ft 117 kts 97°
2026-05-06 01:57 -3.84602 -32.53441 2184 ft 116 kts 98°
2026-05-06 01:58 -3.84660 -32.52631 2036 ft 116 kts 98°
2026-05-06 01:58 -3.84720 -32.51834 1888 ft 115 kts 98°
2026-05-06 01:58 -3.84781 -32.51029 1737 ft 115 kts 98°
2026-05-06 01:58 -3.84842 -32.50239 1587 ft 115 kts 98°
2026-05-06 01:59 -3.84903 -32.49436 1435 ft 114 kts 98°
2026-05-06 01:59 -3.84964 -32.48648 1285 ft 114 kts 98°
2026-05-06 01:59 -3.85025 -32.47859 1135 ft 114 kts 98°
2026-05-06 01:59 -3.85053 -32.47489 1065 ft 114 kts 98°
2026-05-06 02:00 -3.85114 -32.46711 950 ft 111 kts 98°
2026-05-06 02:00 -3.85154 -32.45918 826 ft 115 kts 96°
2026-05-06 02:00 -3.85189 -32.45114 720 ft 115 kts 97°
2026-05-06 02:00 -3.85263 -32.44344 484 ft 110 kts 101°
2026-05-06 02:01 -3.85340 -32.43576 347 ft 110 kts 98°
2026-05-06 02:01 -3.85410 -32.42816 194 ft 102 kts 99°
2026-05-06 02:01 -3.85468 -32.42196 193 ft 72 kts 94°
2026-05-06 02:01 -3.85484 -32.41891 202 ft 17 kts 103°
2026-05-06 02:02 -3.85475 -32.41861 203 ft 5 kts 271°
2026-05-06 02:02 -3.85475 -32.41934 201 ft 16 kts 271°
2026-05-06 02:02 -3.85469 -32.42089 197 ft 28 kts 274°
2026-05-06 02:02 -3.85448 -32.42332 189 ft 41 kts 274°
2026-05-06 02:03 -3.85431 -32.42622 185 ft 29 kts 276°
2026-05-06 02:03 -3.85467 -32.42737 185 ft 14 kts 200°
2026-05-06 02:03 -3.85542 -32.42762 185 ft 8 kts 198°
2026-05-06 02:03 -3.85578 -32.42773 185 ft 2 kts 203°
2026-05-06 02:04 -3.85599 -32.42784 186 ft 4 kts 210°
2026-05-06 02:04 -3.85611 -32.42792 186 ft 0 kts 210°